Tiempo cada hora Godziszka

Hoy, 25 Noviembre, Miércoles

Tiempo Temperatura Precipitaciones Viento Presión Humedad
00:00 -2°C° 0 mm 2 mps 726 mmHg 78%
01:00 -2°C° 0 mm 2 mps 726 mmHg 79%
02:00 -2°C° 0 mm 2 mps 726 mmHg 77%
03:00 -2°C° 0 mm 2 mps 725 mmHg 76%
04:00 -2°C° 0 mm 2 mps 725 mmHg 75%
05:00 -2°C° 0 mm 2 mps 725 mmHg 74%
06:00 -2°C° 0 mm 2 mps 725 mmHg 72%
07:00 -2°C° 0 mm 2 mps 725 mmHg 74%
08:00 -1°C° 0 mm 2 mps 725 mmHg 68%
09:00 +2°C° 0 mm 2 mps 725 mmHg 62%
10:00 +3°C° 0 mm 2 mps 725 mmHg 56%
11:00 +4°C° 0 mm 2 mps 725 mmHg 53%
12:00 +5°C° 0 mm 2 mps 725 mmHg 51%
13:00 +5°C° 0 mm 2 mps 725 mmHg 49%
14:00 +4°C° 0 mm 2 mps 724 mmHg 56%
15:00 +2°C° 0 mm 2 mps 724 mmHg 63%
16:00 +1°C° 0 mm 2 mps 724 mmHg 71%
17:00 -1°C° 0 mm 2 mps 724 mmHg 72%
18:00 -1°C° 0 mm 2 mps 724 mmHg 74%
19:00 -2°C° 0 mm 2 mps 724 mmHg 75%
20:00 -2°C° 0 mm 2 mps 724 mmHg 76%
21:00 -2°C° 0 mm 2 mps 724 mmHg 77%
22:00 -2°C° 0 mm 2 mps 724 mmHg 77%
23:00 -2°C° 0 mm 2 mps 724 mmHg 78%

Mañana, 26 Noviembre, Jueves

Tiempo Temperatura Precipitaciones Viento Presión Humedad
00:00 -2°C° 0 mm 2 mps 724 mmHg 79%
01:00 -2°C° 0 mm 2 mps 724 mmHg 80%
02:00 -2°C° 0 mm 2 mps 724 mmHg 80%
03:00 -2°C° 0 mm 2 mps 723 mmHg 80%
04:00 -2°C° 0 mm 2 mps 723 mmHg 81%
05:00 -2°C° 0 mm 2 mps 723 mmHg 81%
06:00 -2°C° 0 mm 2 mps 724 mmHg 82%
07:00 -2°C° 0 mm 2 mps 724 mmHg 83%
08:00 -1°C° 0 mm 2 mps 724 mmHg 78%
09:00 +1°C° 0 mm 2 mps 724 mmHg 73%
10:00 +3°C° 0 mm 2 mps 724 mmHg 68%
11:00 +3°C° 0 mm 2 mps 724 mmHg 67%
12:00 +4°C° 0 mm 2 mps 723 mmHg 65%
13:00 +5°C° 0 mm 2 mps 723 mmHg 64%
14:00 +3°C° 0 mm 2 mps 723 mmHg 70%
15:00 +2°C° 0 mm 2 mps 723 mmHg 77%
16:00 -1°C° 0 mm 2 mps 722 mmHg 84%
17:00 -1°C° 0 mm 2 mps 722 mmHg 85%
18:00 -1°C° 0 mm 2 mps 722 mmHg 85%
19:00 -1°C° 0 mm 2 mps 722 mmHg 85%
20:00 -1°C° 0 mm 2 mps 722 mmHg 84%
21:00 -1°C° 0 mm 2 mps 723 mmHg 82%
22:00 +1°C° 0 mm 1 mps 723 mmHg 81%
23:00 +1°C° 0 mm 1 mps 723 mmHg 80%

Pasado mañana, 27 Noviembre, Viernes

Tiempo Temperatura Precipitaciones Viento Presión Humedad
00:00 +1°C° 0 mm 1 mps 722 mmHg 79%
01:00 +1°C° 0 mm 1 mps 722 mmHg 79%
02:00 +1°C° 0 mm 1 mps 722 mmHg 78%
03:00 +1°C° 0 mm 1 mps 722 mmHg 78%
04:00 +1°C° 0 mm 1 mps 722 mmHg 77%
05:00 +1°C° 0 mm 1 mps 722 mmHg 76%
06:00 +2°C° 0 mm 1 mps 722 mmHg 75%
07:00 +2°C° 0 mm 1 mps 722 mmHg 73%
08:00 +3°C° 0 mm 1 mps 723 mmHg 71%
09:00 +4°C° 0 mm 1 mps 723 mmHg 68%
10:00 +5°C° 0 mm 1 mps 723 mmHg 65%
11:00 +5°C° 0 mm 1 mps 723 mmHg 65%
12:00 +6°C° 0 mm 1 mps 723 mmHg 65%
13:00 +6°C° 0 mm 0 mps 723 mmHg 65%
14:00 +4°C° 0 mm 0 mps 723 mmHg 72%
15:00 +3°C° 0 mm 0 mps 722 mmHg 78%
16:00 +1°C° 0 mm 0 mps 722 mmHg 85%
17:00 +1°C° 0 mm 0 mps 722 mmHg 84%
18:00 +2°C° 0 mm 0 mps 723 mmHg 84%
19:00 +2°C° 0 mm 0 mps 723 mmHg 84%
20:00 +2°C° 0 mm 0 mps 723 mmHg 85%
21:00 +1°C° 0 mm 0 mps 723 mmHg 87%
22:00 +1°C° 0 mm 0 mps 723 mmHg 88%
23:00 +1°C° 0 mm 0 mps 723 mmHg 88%

28 Noviembre, Sábado

Tiempo Temperatura Precipitaciones Viento Presión Humedad
00:00 +1°C° 0 mm 0 mps 723 mmHg 89%
01:00 +2°C° 0 mm 0 mps 722 mmHg 89%
02:00 +2°C° 0.1 mm 0 mps 722 mmHg 90%
03:00 +2°C° 0.1 mm 0 mps 722 mmHg 91%
04:00 +2°C° 0.1 mm 0 mps 722 mmHg 93%
05:00 +2°C° 0.2 mm 0 mps 722 mmHg 93%
06:00 +2°C° 0.2 mm 0 mps 722 mmHg 94%
07:00 +2°C° 0.2 mm 0 mps 722 mmHg 95%
08:00 +2°C° 0.1 mm 0 mps 722 mmHg 95%
09:00 +2°C° 0.1 mm 0 mps 722 mmHg 94%
10:00 +3°C° 0.1 mm 0 mps 722 mmHg 94%
11:00 +4°C° 0 mm 1 mps 722 mmHg 90%
12:00 +4°C° 0 mm 1 mps 722 mmHg 86%
13:00 +4°C° 0 mm 1 mps 722 mmHg 82%
14:00 +4°C° 0 mm 1 mps 722 mmHg 83%
15:00 +4°C° 0 mm 1 mps 722 mmHg 83%
16:00 +3°C° 0 mm 1 mps 721 mmHg 83%
17:00 +2°C° 0.1 mm 2 mps 722 mmHg 84%
18:00 +1°C° 0.1 mm 2 mps 722 mmHg 86%
19:00 +1°C° 0.1 mm 2 mps 722 mmHg 87%
20:00 +1°C° 0.1 mm 2 mps 722 mmHg 89%
21:00 -1°C° 0.1 mm 2 mps 723 mmHg 90%
22:00 -1°C° 0.1 mm 2 mps 723 mmHg 92%
23:00 -2°C° 0.1 mm 2 mps 723 mmHg 91%

29 Noviembre, Domingo

Tiempo Temperatura Precipitaciones Viento Presión Humedad
00:00 -2°C° 0.1 mm 2 mps 723 mmHg 89%
01:00 -3°C° 0.1 mm 2 mps 723 mmHg 88%
02:00 -3°C° 0 mm 2 mps 723 mmHg 89%
03:00 -3°C° 0 mm 2 mps 723 mmHg 89%
04:00 -4°C° 0 mm 2 mps 723 mmHg 90%
05:00 -4°C° 0 mm 2 mps 723 mmHg 91%
06:00 -2°C° 0 mm 1 mps 723 mmHg 91%
07:00 -2°C° 0 mm 1 mps 723 mmHg 91%
08:00 -4°C° 0 mm 2 mps 723 mmHg 87%
09:00 -3°C° 0 mm 2 mps 724 mmHg 82%
10:00 -3°C° 0 mm 2 mps 724 mmHg 77%
11:00 -2°C° 0 mm 2 mps 724 mmHg 75%
12:00 -2°C° 0 mm 2 mps 724 mmHg 74%
13:00 -2°C° 0 mm 2 mps 723 mmHg 72%
14:00 -2°C° 0 mm 2 mps 723 mmHg 74%
15:00 -3°C° 0 mm 2 mps 723 mmHg 76%
16:00 -3°C° 0 mm 2 mps 723 mmHg 78%
17:00 -3°C° 0 mm 2 mps 723 mmHg 80%
18:00 -4°C° 0 mm 2 mps 723 mmHg 82%
19:00 -4°C° 0 mm 2 mps 723 mmHg 84%
20:00 -4°C° 0 mm 2 mps 723 mmHg 85%
21:00 -2°C° 0 mm 1 mps 723 mmHg 86%
22:00 -3°C° 0 mm 1 mps 723 mmHg 87%
23:00 -3°C° 0 mm 1 mps 723 mmHg 88%

30 Noviembre, Lunes

Tiempo Temperatura Precipitaciones Viento Presión Humedad
00:00 -3°C° 0 mm 1 mps 723 mmHg 89%
01:00 -3°C° 0 mm 1 mps 723 mmHg 89%
02:00 -3°C° 0 mm 1 mps 723 mmHg 90%
03:00 -3°C° 0 mm 1 mps 723 mmHg 91%
04:00 -3°C° 0 mm 1 mps 723 mmHg 92%
05:00 -3°C° 0 mm 1 mps 723 mmHg 93%
06:00 -4°C° 0 mm 0 mps 724 mmHg 94%
07:00 -4°C° 0 mm 0 mps 724 mmHg 94%
08:00 -3°C° 0 mm 1 mps 724 mmHg 90%
09:00 -2°C° 0 mm 1 mps 725 mmHg 85%
10:00 -1°C° 0 mm 1 mps 725 mmHg 81%
11:00 -1°C° 0 mm 1 mps 725 mmHg 80%
12:00 -1°C° 0 mm 1 mps 725 mmHg 78%
13:00 -1°C° 0 mm 1 mps 725 mmHg 77%
14:00 -1°C° 0 mm 1 mps 725 mmHg 78%
15:00 -1°C° 0 mm 1 mps 725 mmHg 79%
16:00 -1°C° 0 mm 1 mps 725 mmHg 81%
17:00 -2°C° 0 mm 1 mps 725 mmHg 81%
18:00 -2°C° 0 mm 1 mps 725 mmHg 81%
19:00 -2°C° 0 mm 1 mps 726 mmHg 81%
20:00 -3°C° 0 mm 0 mps 726 mmHg 82%
21:00 -3°C° 0 mm 0 mps 726 mmHg 82%
22:00 -3°C° 0 mm 0 mps 726 mmHg 83%
23:00 -3°C° 0 mm 0 mps 726 mmHg 83%
Mostrar más

Necesitamos Su Consentimiento

Meteoprog y nuestros Proveedores de Servicios pueden almacenar y acceder a sus datos personales como cookies, identificadores de dispositivo u otras tecnologías similares de su dispositivo y procesar dichos datos para personalizar contenido y anuncios, además de ofrecer funciones de redes sociales y analizar el tráfico.

  • Almacenar y/o acceder a información en su dispositivo

    Se puede almacenar o acceder a cookies, identificadores de dispositivo u otra información de su dispositivo para los fines anteriormente indicados.

  • Anuncios y contenido personalizados, medición de anuncios y contenido, percepciones del público, y desarrollo de productos

    Los anuncios y el contenido pueden personalizarse en base a su perfil. Se pueden añadir más datos para personalizar mejor los anuncios y contenidos. Se puede medir el rendimiento de los anuncios y contenidos. Se puede obtener la percepción sobre el público que ha visto los anuncios y contenidos. Dichos datos pueden usarse para desarrollar o mejorar la experiencia del usuario, sistemas y software.

Al hacer clic en ‘Estoy De Acuerdo’ usted permitirá el uso de las cookies, identificadores de dispositivo, balizas web u otras tecnologías similares indicadas. Su configuración puede cambiarse desde el navegador de su dispositivo.

Para ciertos fines, los intereses legítimos pueden ser considerados por encima del consentimiento. Puede leer más sobre ello en nuestra Política de Privacidad y Cookies.